User: anonymous   Login
Location: Unspecified
(0.0000°N, 0.0000°E)
Time: 11:02:00
(UTC+00:00)
Language:

MUOS 3 - Orbit

View from above orbital plane
View from above orbital plane
View from above satellite
View from above satellite

Ground track
Ground track

The orbit data is extracted from the following two-line orbital elements,

1 40374U 15002A   19107.85863067 -.00000154 +00000-0 +00000-0 0  9998
2 40374 003.2777 338.2348 0052655 176.5241 344.5659 01.00272092015573
Epoch (UTC): 17 April 2019 20:36:25
Eccentricity: 0.0052655
inclination: 3.2777°
perigee height: 35564 km
apogee height: 36008 km
right ascension of ascending node: 338.2348°
argument of perigee: 176.5241°
revolutions per day: 1.00272092
mean anomaly at epoch: 344.5659°
orbit number at epoch: 1557

The dashed part of the orbit path shows where the satellite is in the earth's shadow,  

DLR